Terug naar catalogus

FENGYUN 1C DEB

ActiefSSO
NORAD 30858·DEBRIS·🇨🇳 China

Gelanceerd May 10, 1999 vanaf Taiyuan Satellite Launch Center

Loading…

Volgende Passages (komende 24 uur)

TLE

VersSource: Space-Track

Epoch: Sep 14, 2026, 10:25 UTC

1 30858U 99025AWU 26257.43403192  .00000398  00000-0  21411-3 0  9999
2 30858  98.7674 317.0400 0030168  41.9870  91.0895 14.18149289  8871

Volg FENGYUN 1C DEB in realtime met AllMySat

Download on the App Store